Location: Davayat
(45.9471°N, 3.1105°E)
Time: 18:29:43
(UTC+00:00)

USA 215 - Pass Details

Date: 01 December 2020
Orbit: 1098 x 1110 km, 123.0° (Epoch: 22 January)

Event Time Altitude Azimuth Distance (km) Brightness Sun altitude
Exits shadow 16:59:29 11° 74° (ENE) 2,890 4.8 -9.4°
Maximum altitude 17:04:24 25° 125° (SE) 2,080 4.4 -10.2°
Drops below altitude 10° 17:09:35 10° 178° (S) 2,964 5.8 -11.1°
Sets 17:12:35 0° 191° (S) 3,918 6.6 -11.6°
